Location: Bednik
(45.3500°N, 16.3833°E)
Time: 16:06:38
(UTC+00:00)

FALCON 9 DEB - Pass Details

Date: 08 August 2020
Orbit: 428 x 441 km, 53.0° (Epoch: 18 September)

Event Time Altitude Azimuth Distance (km) Brightness Sun altitude
Rises 21:09:40 0° 257° (WSW) 2,424 7.1 -23.9°
Reaches altitude 10° 21:11:52 10° 265° (W) 1,556 6.2 -24.1°
Maximum altitude 21:15:12 41° 337° (NNW) 654 4.4 -24.4°
Enters shadow 21:15:38 39° 359° (N) 680 4.5 -24.4°
